"read_dt","SO2 (ppb)","flags","PMT voltage (V)","lamp voltage (V)","lamp intensity (Hz)","internal temp (C)","react chamber temp (C)","sample flow (l/min)","pres (mmHg)","SO2 bkg (ppb)","SO2 coefficient"
2014-05-08 00:00:00,2942E-2,5C000010,-0724,1078,9669,026.1,045.2,0.299,749.4,01.17,0.508
2014-05-08 00:01:00,2935E-2,5C000010,-0724,1080,9704,026.1,045.3,0.294,749.3,01.17,0.508
2014-05-08 00:02:00,2950E-2,5C000010,-0724,1078,9530,026.1,045.2,0.294,749.3,01.17,0.508
2014-05-08 00:03:00,2908E-2,5C000010,-0724,1080,9718,026.1,045.3,0.295,749.3,01.17,0.508
2014-05-08 00:04:00,2946E-2,5C000010,-0724,1080,9831,026.1,045.3,0.291,749.3,01.17,0.508
2014-05-08 00:05:00,2908E-2,5C000010,-0724,1079,9751,026.1,045.3,0.289,749.3,01.17,0.508
2014-05-08 00:06:00,2945E-2,5C000010,-0724,1080,9723,026.1,045.2,0.287,749.3,01.17,0.508
2014-05-08 00:07:00,2902E-2,5C000010,-0724,1079,9701,026.0,045.2,0.287,749.2,01.17,0.508
2014-05-08 00:08:00,2898E-2,5C000010,-0724,1079,9876,026.0,045.3,0.288,749.3,01.17,0.508
2014-05-08 00:09:00,2932E-2,5C000010,-0724,1079,9758,026.0,045.3,0.286,749.2,01.17,0.508
2014-05-08 00:10:00,2883E-2,5C000010,-0724,1080,9652,026.0,045.2,0.288,749.3,01.17,0.508
2014-05-08 00:11:00,2948E-2,5C000010,-0724,1080,9759,026.1,045.3,0.287,749.3,01.17,0.508
2014-05-08 00:12:00,2894E-2,5C000010,-0724,1080,9772,026.1,045.3,0.289,749.3,01.17,0.508
2014-05-08 00:13:00,2969E-2,5C000010,-0724,1079,9694,026.1,045.3,0.290,749.3,01.17,0.508
2014-05-08 00:14:00,2973E-2,5C000010,-0724,1081,9614,026.1,045.2,0.290,749.4,01.17,0.508
2014-05-08 00:15:00,2944E-2,5C000010,-0724,1081,9815,026.1,045.2,0.287,749.4,01.17,0.508
2014-05-08 00:16:00,2939E-2,5C000010,-0724,1081,9722,026.1,045.3,0.285,749.3,01.17,0.508
2014-05-08 00:17:00,2938E-2,5C000010,-0724,1080,9473,026.0,045.3,0.284,749.3,01.17,0.508
2014-05-08 00:18:00,2948E-2,5C000010,-0724,1080,9834,026.0,045.3,0.284,749.3,01.17,0.508
2014-05-08 00:19:00,2940E-2,5C000010,-0724,1080,9717,026.1,045.3,0.283,749.4,01.17,0.508
2014-05-08 00:20:00,2963E-2,5C000010,-0724,1081,9624,026.1,045.2,0.282,749.4,01.17,0.508
2014-05-08 00:21:00,2955E-2,5C000010,-0724,1081,9671,026.1,045.2,0.282,749.4,01.17,0.508
2014-05-08 00:22:00,2973E-2,5C000010,-0724,1081,9700,026.1,045.2,0.282,749.4,01.17,0.508
2014-05-08 00:23:00,2955E-2,5C000010,-0724,1081,9731,026.1,045.2,0.282,749.4,01.17,0.508
2014-05-08 00:24:00,2999E-2,5C000010,-0724,1082,9754,026.1,045.2,0.283,749.5,01.17,0.508
2014-05-08 00:25:00,2989E-2,5C000010,-0724,1082,9712,026.1,045.3,0.282,749.5,01.17,0.508
2014-05-08 00:26:00,2966E-2,5C000010,-0724,1082,9886,026.1,045.2,0.283,749.5,01.17,0.508
2014-05-08 00:27:00,2983E-2,5C000010,-0724,1081,9814,026.1,045.3,0.282,749.5,01.17,0.508
2014-05-08 00:28:00,2981E-2,5C000010,-0724,1081,9836,026.1,045.3,0.281,749.5,01.17,0.508
2014-05-08 00:29:00,2975E-2,5C000010,-0724,1082,9706,026.1,045.3,0.281,749.5,01.17,0.508
2014-05-08 00:30:00,3000E-2,5C000010,-0724,1082,9783,026.1,045.2,0.281,749.5,01.17,0.508
2014-05-08 00:31:00,2992E-2,5C000010,-0724,1082,9616,026.1,045.2,0.278,749.5,01.17,0.508
2014-05-08 00:32:00,2976E-2,5C000010,-0724,1081,9658,026.1,045.2,0.278,749.5,01.17,0.508
2014-05-08 00:33:00,2997E-2,5C000010,-0724,1081,9770,026.1,045.3,0.280,749.6,01.17,0.508
2014-05-08 00:34:00,2945E-2,5C000010,-0724,1082,9824,026.1,045.2,0.278,749.6,01.17,0.508
2014-05-08 00:35:00,2961E-2,5C000010,-0724,1081,9577,026.1,045.3,0.278,749.6,01.17,0.508
2014-05-08 00:36:00,2958E-2,5C000010,-0724,1081,9716,026.1,045.3,0.277,749.6,01.17,0.508
2014-05-08 00:37:00,2949E-2,5C000010,-0724,1081,9768,026.1,045.3,0.275,749.6,01.17,0.508
2014-05-08 00:38:00,2984E-2,5C000010,-0724,1082,9668,026.1,045.3,0.275,749.6,01.17,0.508
2014-05-08 00:39:00,2956E-2,5C000010,-0724,1083,9724,026.1,045.2,0.275,749.6,01.17,0.508
2014-05-08 00:40:00,2935E-2,5C000010,-0724,1080,9765,026.1,045.3,0.276,749.6,01.17,0.508
2014-05-08 00:41:00,2955E-2,5C000010,-0724,1079,9637,026.1,045.3,0.275,749.6,01.17,0.508
2014-05-08 00:42:00,2949E-2,5C000010,-0724,1079,9621,026.1,045.2,0.275,749.6,01.17,0.508
2014-05-08 00:43:00,2999E-2,5C000010,-0724,1080,9759,026.1,045.2,0.276,749.5,01.17,0.508
2014-05-08 00:44:00,2971E-2,5C000010,-0724,1080,9651,026.1,045.3,0.277,749.5,01.17,0.508
2014-05-08 00:45:00,2990E-2,5C000010,-0724,1080,9789,026.1,045.2,0.277,749.5,01.17,0.508
2014-05-08 00:46:00,2936E-2,5C000010,-0724,1080,9801,026.1,045.2,0.276,749.5,01.17,0.508
2014-05-08 00:47:00,2943E-2,5C000010,-0724,1079,9809,026.1,045.3,0.277,749.5,01.17,0.508
2014-05-08 00:48:00,2981E-2,5C000010,-0724,1080,9748,026.1,045.3,0.288,749.6,01.17,0.508
2014-05-08 00:49:00,2946E-2,5C000010,-0724,1080,9626,026.1,045.3,0.281,749.5,01.17,0.508
2014-05-08 00:50:00,2952E-2,5C000010,-0724,1080,9706,026.1,045.2,0.279,749.5,01.17,0.508
2014-05-08 00:51:00,2960E-2,5C000010,-0724,1080,9921,026.1,045.3,0.280,749.6,01.17,0.508
2014-05-08 00:52:00,2960E-2,5C000010,-0724,1080,9676,026.1,045.3,0.279,749.5,01.17,0.508
2014-05-08 00:53:00,3006E-2,5C000010,-0724,1082,9559,026.1,045.2,0.280,749.5,01.17,0.508
2014-05-08 00:54:00,2970E-2,5C000010,-0724,1081,9651,026.1,045.3,0.279,749.5,01.17,0.508
2014-05-08 00:55:00,2982E-2,5C000010,-0724,1081,9742,026.1,045.3,0.279,749.5,01.17,0.508
2014-05-08 00:56:00,3003E-2,5C000010,-0724,1081,9581,026.1,045.3,0.278,749.5,01.17,0.508
2014-05-08 00:57:00,2965E-2,5C000010,-0724,1081,9865,026.1,045.3,0.277,749.5,01.17,0.508
2014-05-08 00:58:00,2967E-2,5C000010,-0724,1082,9673,026.1,045.3,0.276,749.4,01.17,0.508
2014-05-08 00:59:00,2995E-2,5C000010,-0724,1082,9660,026.1,045.3,0.276,749.5,01.17,0.508
2014-05-08 01:00:00,2950E-2,5C000010,-0724,1083,9658,026.1,045.3,0.277,749.5,01.17,0.508
2014-05-08 01:01:00,2991E-2,5C000010,-0724,1081,9699,026.1,045.2,0.277,749.4,01.17,0.508
2014-05-08 01:02:00,2978E-2,5C000010,-0724,1081,9742,026.1,045.2,0.277,749.4,01.17,0.508
2014-05-08 01:03:00,2965E-2,5C000010,-0724,1082,9832,026.2,045.2,0.279,749.4,01.17,0.508
2014-05-08 01:04:00,3041E-2,5C000010,-0724,1081,9729,026.2,045.2,0.278,749.4,01.17,0.508
2014-05-08 01:05:00,2977E-2,5C000010,-0724,1081,9724,026.2,045.3,0.278,749.4,01.17,0.508
2014-05-08 01:06:00,3002E-2,5C000010,-0724,1082,9667,026.2,045.3,0.276,749.4,01.17,0.508
2014-05-08 01:07:00,2977E-2,5C000410,-0724,1082,9607,026.2,045.3,0.274,749.3,01.17,0.508
2014-05-08 01:08:00,2950E-2,5C000410,-0724,1082,9613,026.1,045.2,0.274,749.3,01.17,0.508
2014-05-08 01:09:00,2981E-2,5C000010,-0724,1079,9628,026.2,045.2,0.275,749.3,01.17,0.508
2014-05-08 01:10:00,2994E-2,5C000010,-0724,1082,9650,026.2,045.3,0.275,749.3,01.17,0.508
2014-05-08 01:11:00,2980E-2,5C000410,-0724,1081,9736,026.2,045.2,0.274,749.3,01.17,0.508
2014-05-08 01:12:00,3023E-2,5C000410,-0724,1082,9451,026.2,045.2,0.273,749.2,01.17,0.508
2014-05-08 01:13:00,2968E-2,5C000410,-0724,1081,9783,026.2,045.3,0.272,749.2,01.17,0.508
2014-05-08 01:14:00,2945E-2,5C000410,-0724,1080,9702,026.2,045.3,0.274,749.3,01.17,0.508
2014-05-08 01:15:00,2949E-2,5C000410,-0724,1081,9787,026.2,045.3,0.274,749.3,01.17,0.508
2014-05-08 01:16:00,2931E-2,5C000410,-0724,1079,9745,026.2,045.3,0.272,749.3,01.17,0.508
2014-05-08 01:17:00,2978E-2,5C000410,-0724,1079,9724,026.2,045.3,0.272,749.2,01.17,0.508
2014-05-08 01:18:00,2940E-2,5C000410,-0724,1080,9733,026.2,045.2,0.272,749.2,01.17,0.508
2014-05-08 01:19:00,2931E-2,5C000410,-0724,1080,9636,026.2,045.3,0.271,749.2,01.17,0.508
2014-05-08 01:20:00,2944E-2,5C000410,-0724,1081,9775,026.2,045.2,0.272,749.2,01.17,0.508
2014-05-08 01:21:00,2974E-2,5C000410,-0724,1080,9740,026.2,045.2,0.273,749.3,01.17,0.508
2014-05-08 01:22:00,2978E-2,5C000410,-0724,1080,9695,026.2,045.3,0.273,749.2,01.17,0.508
2014-05-08 01:23:00,2993E-2,5C000010,-0724,1082,9817,026.2,045.3,0.275,749.2,01.17,0.508
2014-05-08 01:24:00,2983E-2,5C000410,-0724,1081,9799,026.2,045.3,0.273,749.2,01.17,0.508
2014-05-08 01:25:00,2928E-2,5C000410,-0724,1081,9818,026.2,045.3,0.274,749.2,01.17,0.508
2014-05-08 01:26:00,2979E-2,5C000410,-0724,1082,9669,026.2,045.2,0.272,749.2,01.17,0.508
2014-05-08 01:27:00,2990E-2,5C000410,-0724,1081,9623,026.2,045.3,0.271,749.2,01.17,0.508
2014-05-08 01:28:00,2975E-2,5C000410,-0724,1082,9628,026.2,045.3,0.270,749.2,01.17,0.508
2014-05-08 01:29:00,2960E-2,5C000410,-0724,1082,9725,026.2,045.3,0.271,749.3,01.17,0.508
2014-05-08 01:30:00,2992E-2,5C000410,-0724,1082,9660,026.2,045.3,0.270,749.3,01.17,0.508
2014-05-08 01:31:00,2971E-2,5C000410,-0724,1084,9671,026.2,045.3,0.269,749.2,01.17,0.508
2014-05-08 01:32:00,3013E-2,5C000410,-0724,1084,9532,026.2,045.3,0.270,749.2,01.17,0.508
2014-05-08 01:33:00,2974E-2,5C000410,-0724,1083,9556,026.2,045.3,0.271,749.3,01.17,0.508
2014-05-08 01:34:00,2972E-2,5C000410,-0724,1084,9697,026.2,045.3,0.267,749.2,01.17,0.508
2014-05-08 01:35:00,2987E-2,5C000410,-0724,1088,9701,026.2,045.2,0.265,749.1,01.17,0.508
2014-05-08 01:36:00,2974E-2,5C000410,-0724,1087,9620,026.2,045.3,0.266,749.2,01.17,0.508
2014-05-08 01:37:00,3012E-2,5C000410,-0724,1089,9702,026.3,045.3,0.266,749.1,01.17,0.508
2014-05-08 01:38:00,3022E-2,5C000410,-0724,1091,9591,026.3,045.3,0.265,749.1,01.17,0.508
2014-05-08 01:39:00,3059E-2,5C000410,-0724,1091,9726,026.3,045.3,0.263,749.0,01.17,0.508
2014-05-08 01:40:00,3039E-2,5C000410,-0724,1092,9595,026.2,045.3,0.266,749.1,01.17,0.508
2014-05-08 01:41:00,3050E-2,5C000410,-0724,1092,9674,026.2,045.3,0.265,749.1,01.17,0.508
2014-05-08 01:42:00,3039E-2,5C000410,-0724,1092,9652,026.2,045.3,0.264,749.0,01.17,0.508
2014-05-08 01:43:00,3047E-2,5C000410,-0724,1093,9618,026.3,045.3,0.264,749.0,01.17,0.508
2014-05-08 01:44:00,3032E-2,5C000410,-0724,1092,9684,026.3,045.3,0.264,749.1,01.17,0.508
2014-05-08 01:45:00,3045E-2,5C000410,-0724,1090,9806,026.3,045.2,0.264,749.0,01.17,0.508
2014-05-08 01:46:00,3016E-2,5C000410,-0724,1090,9597,026.3,045.3,0.263,749.0,01.17,0.508
2014-05-08 01:47:00,3031E-2,5C000410,-0724,1090,9673,026.3,045.3,0.265,749.1,01.17,0.508
2014-05-08 01:48:00,3000E-2,5C000410,-0724,1092,9439,026.3,045.3,0.261,749.0,01.17,0.508
2014-05-08 01:49:00,3041E-2,5C000410,-0724,1092,9605,026.3,045.3,0.260,748.9,01.17,0.508
2014-05-08 01:50:00,3023E-2,5C000410,-0724,1091,9547,026.3,045.2,0.261,749.0,01.17,0.508
2014-05-08 01:51:00,3064E-2,5C000410,-0724,1092,9582,026.3,045.3,0.260,749.0,01.17,0.508
2014-05-08 01:52:00,3043E-2,5C000410,-0724,1093,9615,026.3,045.3,0.260,748.9,01.17,0.508
2014-05-08 01:53:00,3045E-2,5C000410,-0724,1093,9527,026.3,045.3,0.260,748.9,01.17,0.508
2014-05-08 01:54:00,3054E-2,5C000410,-0724,1092,9684,026.3,045.3,0.261,749.0,01.17,0.508
2014-05-08 01:55:00,3011E-2,5C000410,-0724,1092,9490,026.3,045.3,0.263,749.0,01.17,0.508
2014-05-08 01:56:00,3075E-2,5C000410,-0724,1094,9653,026.3,045.3,0.260,748.9,01.17,0.508
2014-05-08 01:57:00,3075E-2,5C000410,-0724,1094,9541,026.3,045.2,0.260,748.9,01.17,0.508
2014-05-08 01:58:00,3074E-2,5C000410,-0724,1094,9485,026.3,045.3,0.261,749.0,01.17,0.508
2014-05-08 01:59:00,3038E-2,5C000410,-0724,1093,9560,026.3,045.2,0.260,749.0,01.17,0.508
2014-05-08 02:00:00,3061E-2,5C000410,-0724,1095,9535,026.3,045.3,0.260,749.0,01.17,0.508
2014-05-08 02:01:00,3083E-2,5C000410,-0724,1092,9495,026.4,045.3,0.261,749.0,01.17,0.508
2014-05-08 02:02:00,3001E-2,5C000410,-0724,1094,9570,026.4,045.3,0.259,749.0,01.17,0.508
2014-05-08 02:03:00,3047E-2,5C000410,-0724,1094,9505,026.4,045.3,0.257,748.9,01.17,0.508
2014-05-08 02:04:00,3082E-2,5C000410,-0724,1095,9409,026.4,045.3,0.258,749.0,01.17,0.508
2014-05-08 02:05:00,3082E-2,5C000410,-0724,1095,9545,026.4,045.3,0.259,749.0,01.17,0.508
2014-05-08 02:06:00,3083E-2,5C000410,-0724,1095,9574,026.4,045.3,0.256,749.0,01.17,0.508
2014-05-08 02:07:00,3058E-2,5C000410,-0724,1094,9612,026.4,045.3,0.257,749.0,01.17,0.508
2014-05-08 02:08:00,3085E-2,5C000410,-0724,1095,9623,026.4,045.3,0.256,749.0,01.17,0.508
2014-05-08 02:09:00,3052E-2,5C000410,-0724,1096,9422,026.4,045.3,0.257,749.1,01.17,0.508
2014-05-08 02:10:00,3067E-2,5C000410,-0724,1095,9647,026.4,045.3,0.256,749.1,01.17,0.508
2014-05-08 02:11:00,3041E-2,5C000410,-0724,1094,9436,026.4,045.3,0.255,749.1,01.17,0.508
2014-05-08 02:12:00,3029E-2,5C000410,-0724,1093,9636,026.4,045.3,0.256,749.1,01.17,0.508
2014-05-08 02:13:00,3058E-2,5C000410,-0724,1094,9582,026.4,045.3,0.256,749.1,01.17,0.508
2014-05-08 02:14:00,3059E-2,5C000410,-0724,1094,9442,026.4,045.3,0.255,749.1,01.17,0.508
2014-05-08 02:15:00,3075E-2,5C000410,-0724,1094,9732,026.4,045.3,0.255,749.1,01.17,0.508
2014-05-08 02:16:00,3041E-2,5C000410,-0724,1096,9599,026.4,045.3,0.258,749.2,01.17,0.508
2014-05-08 02:17:00,3015E-2,5C000410,-0724,1094,9503,026.4,045.3,0.257,749.2,01.17,0.508
2014-05-08 02:18:00,3098E-2,5C000410,-0724,1093,9736,026.4,045.3,0.255,749.2,01.17,0.508
2014-05-08 02:19:00,3081E-2,5C000410,-0724,1095,9483,026.4,045.2,0.253,749.1,01.17,0.508
2014-05-08 02:20:00,3056E-2,5C000410,-0724,1094,9524,026.4,045.2,0.254,749.2,01.17,0.508
2014-05-08 02:21:00,3049E-2,5C000410,-0724,1096,9581,026.4,045.3,0.254,749.2,01.17,0.508
2014-05-08 02:22:00,3083E-2,5C000410,-0724,1095,9603,026.4,045.3,0.256,749.2,01.17,0.508
2014-05-08 02:23:00,3092E-2,5C000410,-0724,1095,9417,026.4,045.3,0.254,749.2,01.17,0.508
2014-05-08 02:24:00,3056E-2,5C000410,-0724,1095,9581,026.4,045.3,0.255,749.2,01.17,0.508
2014-05-08 02:25:00,3052E-2,5C000410,-0724,1096,9316,026.5,045.3,0.253,749.2,01.17,0.508
2014-05-08 02:26:00,3061E-2,5C000410,-0724,1096,9620,026.4,045.3,0.253,749.1,01.17,0.508
2014-05-08 02:27:00,3070E-2,5C000410,-0724,1093,9388,026.5,045.3,0.254,749.2,01.17,0.508
2014-05-08 02:28:00,3057E-2,5C000410,-0724,1094,9498,026.4,045.2,0.254,749.2,01.17,0.508
2014-05-08 02:29:00,3098E-2,5C000410,-0724,1095,9491,026.4,045.3,0.251,749.1,01.17,0.508
2014-05-08 02:30:00,3052E-2,5C000410,-0724,1095,9574,026.5,045.3,0.252,749.2,01.17,0.508
2014-05-08 02:31:00,3060E-2,5C000410,-0724,1096,9597,026.4,045.3,0.251,749.1,01.17,0.508
2014-05-08 02:32:00,3076E-2,5C000410,-0724,1095,9621,026.5,045.3,0.250,749.1,01.17,0.508
2014-05-08 02:33:00,3073E-2,5C000410,-0724,1097,9669,026.5,045.2,0.251,749.1,01.17,0.508
2014-05-08 02:34:00,3072E-2,5C000410,-0724,1097,9638,026.5,045.3,0.251,749.1,01.17,0.508
2014-05-08 02:35:00,3088E-2,5C000410,-0724,1095,9546,026.5,045.3,0.251,749.1,01.17,0.508
2014-05-08 02:36:00,3053E-2,5C000410,-0724,1096,9508,026.5,045.2,0.248,749.0,01.17,0.508
2014-05-08 02:37:00,3043E-2,5C000410,-0724,1095,9448,026.5,045.3,0.249,749.0,01.17,0.508
2014-05-08 02:38:00,3052E-2,5C000410,-0724,1096,9558,026.5,045.3,0.250,749.1,01.17,0.508
2014-05-08 02:39:00,3081E-2,5C000410,-0724,1098,9620,026.5,045.3,0.248,749.1,01.17,0.508
2014-05-08 02:40:00,3060E-2,5C000410,-0724,1098,9596,026.5,045.3,0.247,749.0,01.17,0.508
2014-05-08 02:41:00,3052E-2,5C000410,-0724,1096,9332,026.5,045.3,0.248,749.0,01.17,0.508
2014-05-08 02:42:00,3062E-2,5C000400,-0724,1026,10220,026.5,045.3,0.245,749.0,01.17,0.508
2014-05-08 02:43:00,2913E-2,5C000400,-0724,1024,10473,026.5,045.3,0.245,749.0,01.17,0.508
2014-05-08 02:44:00,2913E-2,5C000400,-0724,1022,10318,026.5,045.3,0.243,749.0,01.17,0.508
2014-05-08 02:45:00,2891E-2,5C000400,-0724,1023,10394,026.6,045.3,0.242,748.9,01.17,0.508
2014-05-08 02:46:00,2905E-2,5C000400,-0724,1022,10125,026.5,045.3,0.242,748.9,01.17,0.508
2014-05-08 02:47:00,2922E-2,5C000400,-0724,1023,10338,026.6,045.3,0.242,749.0,01.17,0.508
2014-05-08 02:48:00,2902E-2,5C000400,-0724,1024,10431,026.6,045.3,0.242,749.0,01.17,0.508
2014-05-08 02:49:00,2946E-2,5C000400,-0724,1023,10349,026.6,045.3,0.240,748.9,01.17,0.508
2014-05-08 02:50:00,2926E-2,5C000400,-0724,1023,10311,026.6,045.3,0.238,748.9,01.17,0.508
2014-05-08 02:51:00,2903E-2,5C000400,-0724,1025,10012,026.6,045.3,0.240,748.9,01.17,0.508
2014-05-08 02:52:00,2895E-2,5C000400,-0724,1025,10346,026.6,045.3,0.238,748.9,01.17,0.508
2014-05-08 02:53:00,2882E-2,5C000400,-0724,1025,10299,026.6,045.3,0.239,748.9,01.17,0.508
2014-05-08 02:54:00,2894E-2,5C000400,-0724,1025,10342,026.6,045.3,0.238,748.9,01.17,0.508
2014-05-08 02:55:00,2922E-2,5C000400,-0724,1024,10295,026.6,045.3,0.238,748.9,01.17,0.508
2014-05-08 02:56:00,2922E-2,5C000400,-0724,1026,10400,026.6,045.2,0.239,748.9,01.17,0.508
2014-05-08 02:57:00,2891E-2,5C000400,-0724,1025,10280,026.6,045.3,0.237,748.9,01.17,0.508
2014-05-08 02:58:00,2871E-2,5C000400,-0724,1024,10338,026.6,045.3,0.236,748.9,01.17,0.508
2014-05-08 02:59:00,2948E-2,5C000400,-0724,1026,10312,026.6,045.3,0.237,748.9,01.17,0.508
2014-05-08 03:00:00,2926E-2,5C000400,-0724,1025,10330,026.6,045.3,0.237,748.9,01.17,0.508
2014-05-08 03:01:00,2866E-2,5C000400,-0724,1027,10166,026.6,045.3,0.238,748.9,01.17,0.508
2014-05-08 03:02:00,2905E-2,5C000400,-0724,1027,10064,026.6,045.3,0.235,748.9,01.17,0.508
2014-05-08 03:03:00,2875E-2,5C000400,-0724,1027,10048,026.7,045.3,0.235,748.9,01.17,0.508
2014-05-08 03:04:00,2937E-2,5C000400,-0724,1028,10395,026.7,045.3,0.235,748.9,01.17,0.508
2014-05-08 03:05:00,2897E-2,5C000400,-0724,1028,10323,026.7,045.3,0.234,748.9,01.17,0.508
2014-05-08 03:06:00,2919E-2,5C000400,-0724,1028,10155,026.7,045.3,0.233,748.8,01.17,0.508
2014-05-08 03:07:00,2914E-2,5C000400,-0724,1030,10136,026.7,045.3,0.232,748.8,01.17,0.508
2014-05-08 03:08:00,2919E-2,5C000400,-0724,1029,10313,026.7,045.3,0.232,748.8,01.17,0.508
2014-05-08 03:09:00,2901E-2,5C000400,-0724,1030,10239,026.7,045.3,0.232,748.9,01.17,0.508
2014-05-08 03:10:00,2896E-2,5C000400,-0724,1029,10189,026.7,045.3,0.229,748.8,01.17,0.508
2014-05-08 03:11:00,2928E-2,5C000400,-0724,1029,10175,026.7,045.3,0.226,748.7,01.17,0.508
2014-05-08 03:12:00,2904E-2,5C000400,-0724,1029,10190,026.7,045.2,0.229,748.8,01.17,0.508
2014-05-08 03:13:00,2877E-2,5C000400,-0724,1030,10231,026.7,045.3,0.227,748.8,01.17,0.508
2014-05-08 03:14:00,2865E-2,5C000400,-0724,1029,10217,026.7,045.3,0.227,748.8,01.17,0.508
2014-05-08 03:15:00,2889E-2,5C000400,-0724,1030,10187,026.8,045.3,0.226,748.8,01.17,0.508
2014-05-08 03:16:00,2906E-2,5C000400,-0724,1030,10322,026.8,045.3,0.226,748.8,01.17,0.508
2014-05-08 03:17:00,2868E-2,5C000400,-0724,1030,10281,026.8,045.3,0.225,748.8,01.17,0.508
2014-05-08 03:18:00,2894E-2,5C000400,-0724,1030,10335,026.8,045.3,0.223,748.7,01.17,0.508
2014-05-08 03:19:00,2875E-2,5C000400,-0724,1031,10307,026.8,045.3,0.222,748.7,01.17,0.508
2014-05-08 03:20:00,2851E-2,5C000400,-0724,1031,10228,026.8,045.3,0.223,748.8,01.17,0.508
2014-05-08 03:21:00,2893E-2,5C000400,-0724,1032,10201,026.8,045.3,0.221,748.7,01.17,0.508
2014-05-08 03:22:00,2912E-2,5C000400,-0724,1032,10268,026.8,045.3,0.219,748.7,01.17,0.508
2014-05-08 03:23:00,2915E-2,5C000400,-0724,1032,9973,026.8,045.3,0.216,748.7,01.17,0.508
2014-05-08 03:24:00,2887E-2,5C000400,-0724,1032,10270,026.8,045.3,0.215,748.7,01.17,0.508
2014-05-08 03:25:00,2902E-2,5C000400,-0724,1032,10006,026.8,045.3,0.216,748.7,01.17,0.508
2014-05-08 03:26:00,2920E-2,5C000400,-0724,1032,10173,026.8,045.3,0.216,748.7,01.17,0.508
2014-05-08 03:27:00,2851E-2,5C000400,-0724,1033,10095,026.8,045.3,0.217,748.7,01.17,0.508
2014-05-08 03:28:00,2881E-2,5C000400,-0724,1034,10194,026.8,045.3,0.218,748.7,01.17,0.508
2014-05-08 03:29:00,2898E-2,5C000400,-0724,1033,10163,026.8,045.3,0.217,748.5,01.17,0.508
2014-05-08 03:30:00,2881E-2,5C000400,-0724,1034,10319,026.9,045.3,0.218,748.6,01.17,0.508
2014-05-08 03:31:00,2881E-2,5C000410,-0724,1033,10276,026.8,045.3,0.218,748.7,01.17,0.508
2014-05-08 03:32:00,2894E-2,5C000400,-0724,1033,10173,026.9,045.3,0.217,748.6,01.17,0.508
2014-05-08 03:33:00,2862E-2,5C000400,-0724,1034,10171,026.9,045.3,0.217,748.6,01.17,0.508
2014-05-08 03:34:00,2884E-2,5C000400,-0724,1035,10257,026.9,045.3,0.216,748.6,01.17,0.508
2014-05-08 03:35:00,2853E-2,5C000400,-0724,1035,10153,026.9,045.3,0.214,748.6,01.17,0.508
2014-05-08 03:36:00,2906E-2,5C000400,-0724,1035,10205,026.9,045.3,0.212,748.6,01.17,0.508
2014-05-08 03:37:00,2938E-2,5C000400,-0724,1035,10228,026.9,045.3,0.208,748.5,01.17,0.508
2014-05-08 03:38:00,2895E-2,5C000400,-0724,1036,10131,026.9,045.3,0.205,748.5,01.17,0.508
2014-05-08 03:39:00,2892E-2,5C000410,-0724,1036,10145,026.9,045.3,0.204,748.5,01.17,0.508
2014-05-08 03:40:00,2848E-2,5C000400,-0724,1037,10136,026.9,045.3,0.204,748.5,01.17,0.508
2014-05-08 03:41:00,2888E-2,5C000400,-0724,1037,10102,026.9,045.3,0.201,748.5,01.17,0.508
2014-05-08 03:42:00,2910E-2,5C000400,-0724,1037,10322,026.9,045.3,0.202,748.5,01.17,0.508
2014-05-08 03:43:00,2845E-2,5C000410,-0724,1036,10214,027.0,045.3,0.200,748.5,01.17,0.508
2014-05-08 03:44:00,2889E-2,5C000400,-0724,1038,10222,026.9,045.3,0.201,748.4,01.17,0.508
2014-05-08 03:45:00,2859E-2,5C000410,-0724,1038,9998,027.0,045.3,0.205,748.4,01.17,0.508
2014-05-08 03:46:00,2918E-2,5C000400,-0724,1039,10320,026.9,045.3,0.208,748.5,01.17,0.508
2014-05-08 03:47:00,2920E-2,5C000400,-0724,1039,10208,027.0,045.3,0.210,748.5,01.17,0.508
2014-05-08 03:48:00,2873E-2,5C000400,-0724,1039,10273,027.0,045.3,0.158,748.4,01.17,0.508
2014-05-08 03:49:00,2863E-2,5C000400,-0724,1039,10235,027.0,045.3,0.158,748.4,01.17,0.508
2014-05-08 03:50:00,2926E-2,5C000400,-0724,1039,10116,027.0,045.3,0.158,748.5,01.17,0.508
2014-05-08 03:51:00,2910E-2,5C000400,-0724,1039,10152,027.0,045.3,0.158,748.6,01.17,0.508
2014-05-08 03:52:00,2881E-2,5C000400,-0724,1039,10049,027.0,045.3,0.158,748.6,01.17,0.508
2014-05-08 03:53:00,2838E-2,5C000400,-0724,1038,10172,027.0,045.3,0.158,748.6,01.17,0.508
2014-05-08 03:54:00,2870E-2,5C000400,-0724,1038,10236,027.0,045.3,0.158,748.5,01.17,0.508
2014-05-08 03:55:00,2875E-2,5C000400,-0724,1037,10238,027.0,045.3,0.158,748.6,01.17,0.508
2014-05-08 03:56:00,2822E-2,5C000400,-0724,1037,10152,027.0,045.3,0.158,748.7,01.17,0.508
2014-05-08 03:57:00,2895E-2,5C000400,-0724,1037,10120,027.0,045.3,0.158,748.6,01.17,0.508
2014-05-08 03:58:00,2829E-2,5C000400,-0724,1037,10212,027.0,045.3,0.158,748.6,01.17,0.508
2014-05-08 03:59:00,2876E-2,5C000400,-0724,1038,10069,027.0,045.3,0.158,748.6,01.17,0.508
2014-05-08 04:00:00,2860E-2,5C000400,-0724,1037,10274,027.0,045.3,0.158,748.6,01.17,0.508
2014-05-08 04:01:00,2896E-2,5C000400,-0724,1037,10079,027.0,045.3,0.158,748.6,01.17,0.508
2014-05-08 04:02:00,2857E-2,5C000400,-0724,1037,10110,027.1,045.3,0.158,748.6,01.17,0.508
2014-05-08 04:03:00,2838E-2,5C000400,-0724,1038,10060,027.1,045.3,0.158,748.5,01.17,0.508
2014-05-08 04:04:00,2817E-2,5C000400,-0724,1037,10192,027.1,045.3,0.158,748.5,01.17,0.508
2014-05-08 04:05:00,2824E-2,5C000400,-0724,1038,10220,027.0,045.3,0.158,748.5,01.17,0.508
2014-05-08 04:06:00,2846E-2,5C000400,-0724,1037,10201,027.1,045.3,0.158,748.5,01.17,0.508
2014-05-08 04:07:00,2836E-2,5C000400,-0724,1038,10169,027.1,045.3,0.158,748.5,01.17,0.508
2014-05-08 04:08:00,2843E-2,5C000400,-0724,1038,10137,027.1,045.3,0.158,748.5,01.17,0.508
2014-05-08 04:09:00,2809E-2,5C000400,-0724,1038,10366,027.1,045.3,0.158,748.4,01.17,0.508
2014-05-08 04:10:00,2852E-2,5C000400,-0724,1038,10250,027.1,045.3,0.158,748.4,01.17,0.508
2014-05-08 04:11:00,2806E-2,5C000400,-0724,1038,9985,027.1,045.3,0.158,748.4,01.17,0.508
2014-05-08 04:12:00,2825E-2,5C000400,-0724,1037,9948,027.1,045.3,0.158,748.5,01.17,0.508
2014-05-08 04:13:00,2868E-2,5C000400,-0724,1036,10056,027.1,045.3,0.157,748.4,01.17,0.508
2014-05-08 04:14:00,2877E-2,5C000400,-0724,1037,10184,027.1,045.3,0.157,748.4,01.17,0.508
2014-05-08 04:15:00,2865E-2,5C000400,-0724,1036,9959,027.1,045.3,0.157,748.3,01.17,0.508
2014-05-08 04:16:00,2832E-2,5C000400,-0724,1036,9998,027.1,045.3,0.158,748.3,01.17,0.508
2014-05-08 04:17:00,2845E-2,5C000400,-0724,1036,10275,027.1,045.3,0.158,748.3,01.17,0.508
2014-05-08 04:18:00,2861E-2,5C000400,-0724,1037,10230,027.1,045.3,0.157,748.3,01.17,0.508
2014-05-08 04:19:00,2823E-2,5C000400,-0724,1036,10254,027.1,045.3,0.157,748.3,01.17,0.508
2014-05-08 04:20:00,2893E-2,5C000400,-0724,1037,10130,027.1,045.3,0.157,748.3,01.17,0.508
2014-05-08 04:21:00,2890E-2,5C000400,-0724,1036,10308,027.1,045.3,0.157,748.2,01.17,0.508
2014-05-08 04:22:00,2895E-2,5C000400,-0724,1036,10259,027.1,045.3,0.157,748.2,01.17,0.508